Probability
0 0 0 0 0 0 0 0 0 0 0 0 0 0 0 0 1 0 0 0 0 0 0 0 0 0 0 0 0 0 0 0 0 0 0 0 1 1
0 0 0 0 0 0 0 0 0 0 0 0 0 0 0 0 1 0 0 0 0 0 0 0 0 0 0 0 0 0 0 0 0 0 0 0 0 1
0 0 0 0 0 0 0 0 0 0 0 0 0 0 0 0 0 0 0 0 0 0 0 0 0 0 0 0 0 0 0 0 0 0 0 0 0 0
0 0 0 0 0 0 0 0 0 0 0 0 0 0 0 0 0 0 0 0 0 0 0 0 0 0 0 0 0 0 0 0 0 0 0 0 0 0
0 0 0 0 0 0 0 0 0 0 0 0 0 0 0 0 0 0 0 0 0 0 0 0 0 0 0 0 0 0 0 0 0 0 0 0 0 0
0 0 0 0 0 0 0 0 0 0 0 0 0 0 0 0 0 0 0 0 0 0 0 0 0 0 0 0 0 0 0 0 0 0 0 0 0 0
0 0 0 0 0 0 0 0 0 0 0 0 0 0 0 0 0 0 0 0 0 0 0 0 0 0 0 0 0 0 0 0 0 0 0 0 0 0
0 0 0 0 0 0 0 0 0 0 0 0 0 0 0 0 0 0 0 0 0 0 0 0 0 0 0 0 0 0 0 0 0 0 0 0 0 0
0 0 0 0 0 0 0 0 0 0 0 0 0 0 0 0 0 0 0 0 0 0 0 0 0 0 0 0 0 0 0 0 0 0 0 0 0 0
0 0 0 0 0 0 0 0 0 0 0 0 0 0 0 0 0 0 0 0 0 0 0 0 0 0 0 0 0 0 0 0 0 0 0 0 0 0
0 0 0 0 0 0 0 0 0 0 0 0 0 0 0 0 0 0 0 0 0 0 0 0 0 0 0 0 0 0 0 0 0 0 0 0 0 0
0 0 0 0 0 0 0 0 0 0 0 0 0 0 0 0 0 0 0 0 0 0 0 0 0 0 0 0 0 0 0 0 0 0 0 0 0 0
0 0 0 0 0 0 0 0 0 0 0 0 0 0 0 0 0 0 0 0 0 0 0 0 0 0 0 0 0 0 0 0 0 0 0 0 0 0
0 0 0 0 0 0 0 0 0 0 0 0 0 0 0 0 0 0 0 0 0 0 0 0 0 0 0 0 0 0 0 0 0 0 0 0 0 0
0 0 0 0 0 0 0 0 0 0 0 0 0 0 0 0 0 0 0 0 0 0 0 0 0 0 0 0 0 0 0 0 0 0 0 0 0 0
0 0 0 0 0 0 0 0 0 0 0 0 0 0 0 0 0 0 0 0 0 0 0 0 0 0 0 0 0 0 0 0 0 0 0 0 0 0
0 0 0 0 0 0 0 0 0 0 0 0 0 0 0 0 0 0 0 0 0 0 0 0 0 0 0 0 0 0 0 0 0 0 0 0 0 0
0 0 0 0 0 0 0 0 0 0 0 0 0 0 0 0 0 0 0 0 0 0 0 0 0 0 0 0 0 0 0 0 0 0 0 0 0 0
0 0 0 0 0 0 0 0 0 0 0 0 0 0 0 0 0 0 0 0 0 0 0 0 0 0 0 0 0 0 0 0 0 0 0 0 0 0
0 0 0 0 0 0 0 0 0 0 0 0 0 0 0 0 0 0 0 0 0 0 0 0 0 0 0 0 0 0 0 0 0 0 0 0 0 0
0 0 0 0 0 0 0 0 0 0 0 0 0 0 0 0 0 0 0 0 0 0 0 0 0 0 0 0 0 0 0 0 0 0 0 0 0 0
0 0 0 0 0 0 0 0 0 0 0 0 0 0 0 0 0 0 0 0 0 0 0 0 0 0 0 0 0 0 0 0 0 0 0 0 0 0
0 0 0 0 0 0 0 0 0 0 0 0 0 0 0 0 0 0 0 0 0 0 0 0 0 0 0 0 0 0 0 0 0 0 0 0 0 0
Wind_Speed
3 3 2 2 2 2 2 2 2 1 2 2 1 1 1 1 3 2 2 4 5 4 3 3 2 2 2 2 2 2 2 2 3 3 3 3 4 5
2 2 2 2 2 2 1 1 2 2 2 2 2 2 2 2 3 3 3 5 5 5 5 4 4 4 4 3 3 3 3 3 4 4 4 4 4 5
3 2 3 3 2 2 1 1 1 2 2 2 1 1 1 2 1 2 2 2 3 6 6 6 5 5 5 5 4 4 4 4 5 5 5 5 5 6
3 3 3 2 2 2 1 1 1 2 2 2 1 1 2 2 2 2 2 3 3 5 7 7 7 7 7 6 6 5 5 5 5 5 5 6 6 6
3 3 3 2 2 2 1 1 1 1 1 2 1 1 1 1 1 2 2 2 3 4 6 7 8 8 8 8 7 7 7 7 7 6 6 6 6 6
3 3 2 2 2 2 1 1 1 0 1 1 1 1 1 1 1 1 2 2 3 3 4 5 6 8 9 9 9 9 9 8 8 8 7 7 6 6
4 3 3 3 3 2 2 2 1 1 1 1 1 1 1 1 2 2 2 2 3 2 2 3 2 3 5 7 9 10 10 10 9 9 8 8 7 7
3 4 4 4 4 3 3 3 3 3 3 2 2 2 3 3 2 2 1 1 2 2 2 3 2 3 4 4 8 11 11 11 11 10 10 9 9 8
3 3 4 4 4 2 3 3 3 5 6 4 4 4 4 4 3 2 2 2 4 3 1 3 2 4 4 6 10 11 11 11 11 11 11 10 10 9
3 3 3 4 4 2 2 3 3 3 4 4 5 6 5 4 4 4 3 2 2 2 3 3 3 3 4 4 7 10 11 11 12 12 11 11 11 10
4 3 3 3 5 3 2 3 4 4 5 6 6 7 8 7 5 2 2 1 2 3 2 3 3 2 3 3 5 8 10 11 11 12 12 12 11 10
4 4 5 5 6 4 2 2 4 5 4 4 4 5 5 6 7 6 5 3 2 3 3 3 2 1 2 3 2 2 4 7 10 11 12 12 11 6
3 4 4 7 7 7 5 4 6 6 4 4 4 4 3 3 4 4 5 5 4 5 4 3 2 2 2 3 3 2 3 3 3 5 9 11 11 9
4 4 4 8 9 8 6 6 7 5 2 2 3 3 3 4 4 4 5 6 6 7 5 4 3 3 3 2 4 3 2 3 3 4 4 6 9 12
4 6 8 10 9 6 6 8 6 3 2 2 3 4 4 4 3 3 3 4 5 6 6 5 5 4 3 4 4 3 3 3 4 4 4 5 5 5
4 6 8 8 6 6 6 5 3 3 3 4 4 4 3 2 3 3 3 2 2 4 5 6 6 6 5 5 5 5 4 3 3 4 4 4 4 5
3 3 3 3 3 3 3 4 3 2 3 3 4 4 3 3 3 3 2 2 3 3 4 4 4 5 6 5 4 5 5 4 5 4 3 4 5 6
1 2 4 4 4 4 4 4 3 3 3 3 3 4 4 4 4 3 3 3 4 4 5 4 2 2 2 4 7 6 5 5 4 4 4 4 6 6
1 3 4 4 4 4 4 4 4 4 3 3 3 4 4 4 3 3 3 3 4 5 5 4 3 2 3 5 6 7 6 5 4 3 4 5 6 6
2 4 4 5 4 4 4 4 4 4 3 3 3 3 3 3 4 4 4 4 4 4 4 3 3 4 6 6 5 5 8 7 5 5 5 4 5 6
4 4 4 4 4 4 4 4 4 3 3 3 3 4 4 4 4 4 4 5 4 3 4 5 6 7 4 1 2 5 5 8 9 6 4 3 3 3
4 4 4 4 4 3 3 3 3 3 3 3 3 3 3 3 4 5 4 4 4 5 5 5 4 2 2 4 5 6 6 5 6 9 9 8 5 4
4 4 4 3 3 2 2 3 3 3 3 3 3 4 3 3 4 4 5 5 5 5 4 4 3 2 3 4 4 5 6 5 3 3 5 8 11 12
Wind_Direction
285 284 277 276 267 251 221 194 192 232 267 255 254 242 205 197 203 198 205 213 213 207 208 218 229 229 231 240 250 263 272 263 242 234 242 247 239 231
289 291 290 280 284 279 240 218 196 188 231 243 230 228 214 220 210 209 219 223 226 221 219 223 234 239 239 242 245 252 258 256 250 242 238 239 237 234
301 290 289 283 289 285 262 237 218 177 210 265 251 237 218 232 232 221 227 226 229 228 227 228 236 241 240 241 242 244 248 251 246 241 239 240 234 229
304 301 295 299 294 290 271 246 236 205 185 210 262 246 240 233 222 226 234 229 229 233 230 230 237 240 241 241 243 243 246 246 243 239 238 236 234 229
299 296 293 299 307 305 293 258 243 219 176 184 233 245 255 239 227 253 251 263 249 238 232 234 238 239 239 240 240 241 243 243 239 237 235 231 228 225
307 299 299 286 273 273 266 247 210 185 184 186 232 258 264 263 205 241 273 267 261 254 243 238 237 241 242 241 242 241 239 238 235 230 230 228 225 222
319 314 306 306 290 263 240 223 196 188 196 200 237 260 263 252 237 227 244 273 273 248 246 254 241 245 246 244 243 241 239 236 233 229 227 227 225 221
304 310 311 312 308 297 273 248 215 198 201 201 218 230 245 238 231 225 222 242 277 255 195 256 225 248 251 241 242 238 237 233 229 228 227 225 222 221
280 291 303 312 317 301 295 291 265 234 214 198 213 230 229 223 206 224 223 214 235 245 188 262 250 252 252 250 244 238 236 232 228 226 226 225 223 221
274 268 274 294 300 290 288 295 281 266 242 222 219 231 233 229 212 212 219 229 266 261 185 235 256 250 259 253 249 239 236 232 231 228 226 225 225 224
293 285 263 270 286 294 277 288 294 291 273 248 236 239 242 238 220 185 196 191 269 272 206 203 248 263 272 262 254 244 239 235 231 229 228 226 225 223
300 296 279 269 276 281 256 262 279 284 292 301 287 274 257 250 234 208 199 199 219 263 237 194 230 221 291 280 261 251 243 242 236 234 231 228 221 210
290 294 288 290 283 278 270 245 251 265 279 277 283 284 278 264 248 226 209 199 204 234 229 184 212 202 213 275 290 256 227 231 226 234 234 232 222 202
268 277 282 292 288 286 279 266 269 273 268 278 276 273 269 263 256 245 229 221 222 231 235 190 204 207 205 244 269 276 255 232 217 229 230 230 228 219
259 272 283 290 292 288 275 277 279 260 251 257 262 261 253 251 254 265 265 245 244 246 243 216 212 219 205 224 244 248 261 259 224 223 226 220 218 206
275 286 291 288 282 276 282 285 265 240 228 241 253 261 267 267 255 244 253 261 269 276 260 235 221 214 227 234 233 249 240 240 240 227 228 235 228 213
294 300 302 306 304 296 290 279 271 262 244 242 250 262 265 263 262 248 235 233 235 258 275 273 243 226 223 218 234 247 248 248 246 236 219 238 240 226
255 284 290 287 284 286 288 287 277 266 256 248 248 249 254 258 264 264 243 230 242 253 257 262 273 297 299 260 223 235 246 247 251 236 213 226 251 245
235 270 277 280 279 278 274 268 268 266 257 250 255 255 252 255 256 263 262 254 253 254 255 247 229 212 241 267 266 221 220 243 244 244 227 220 237 247
239 261 274 278 277 277 274 267 267 271 264 255 255 261 256 252 256 261 262 255 258 258 262 258 233 220 222 237 254 261 226 221 226 238 246 241 248 257
275 270 270 274 277 276 274 270 267 269 271 267 263 262 261 258 258 260 263 267 263 262 261 257 251 241 233 220 264 270 261 230 218 220 229 240 253 260
269 274 277 277 279 283 289 289 283 277 276 265 265 267 263 258 262 264 263 264 259 255 259 265 269 252 206 223 249 263 272 275 251 241 236 221 208 220
266 270 273 278 281 288 295 299 296 289 281 271 267 264 259 259 259 261 260 259 259 261 262 269 274 252 240 236 247 260 268 273 274 278 272 257 240 241